GW0861 Weather Reports


Display with metric or nautical units.
time (UTC)temp
F
wind
direction
speed
MPH
gust
MPH
rain 1hr
in
rain 24hr
in
rain mn
in
humidity
%
barometer
mb
20260507191522 54 354 3.0 16.0 0.00 0.00 0.00 53 1009.3
20260507191022 54 282 10.0 15.0 0.00 0.00 0.00 52 1009.3
20260507190759 53 292 7.0 14.0 0.00 0.00 0.00 54 1009.2
20260507190257 53 281 7.0 14.0 0.00 0.00 0.00 51 1009.4
20260507185758 54 266 6.0 13.0 0.00 0.00 0.00 51 1009.5
20260507185046 54 310 7.0 11.0 0.00 0.00 0.00 52 1009.5
20260507185038 54 254 3.0 11.0 0.00 0.00 0.00 54 1009.5
20260507184023 54 305 3.0 9.0 0.00 0.00 0.00 53 1009.5
20260507183522 54 303 4.0 12.0 0.00 0.00 0.00 54 1009.5
20260507183514 54 298 6.0 18.0 0.00 0.00 0.00 54 1009.4
20260507182748 54 319 5.0 18.0 0.00 0.00 0.00 53 1009.5
20260507182027 53 0 8.0 19.0 0.00 0.00 0.00 54 1009.5
20260507182023 54 293 8.0 18.0 0.00 0.00 0.00 54 1009.5
20260507181022 53 275 11.0 19.0 0.00 0.00 0.00 53 1009.4
20260507180522 52 278 12.0 18.0 0.00 0.00 0.00 52 1009.6
20260507180327 52 285 8.0 16.0 0.00 0.00 0.00 57 1009.6
20260507175522 51 281 5.0 16.0 0.00 0.00 0.00 57 1009.6
20260507175307 51 288 8.0 16.0 0.00 0.00 0.00 54 1009.7
20260507174523 51 321 7.0 13.0 0.00 0.00 0.00 57 1009.8
20260507174022 51 278 2.0 15.0 0.00 0.00 0.00 59 1009.9
20260507173801 51 299 6.0 15.0 0.00 0.00 0.00 55 1010.0
20260507173024 51 278 9.0 18.0 0.00 0.01 0.00 54 1010.1
20260507172750 51 281 9.0 18.0 0.00 0.01 0.00 54 1009.9
20260507172259 51 292 8.0 16.0 0.00 0.01 0.00 56 1010.0
20260507171521 51 286 6.0 17.0 0.00 0.01 0.00 57 1010.0
20260507171022 51 235 9.0 17.0 0.00 0.01 0.00 54 1010.0
20260507170524 51 258 9.0 14.0 0.00 0.01 0.00 60 1010.1
20260507170519 50 302 8.0 14.0 0.00 0.01 0.00 60 1010.2
20260507165023 50 333 8.0 13.0 0.00 0.01 0.00 62 1010.5
20260507165010 50 281 6.0 11.0 0.00 0.01 0.00 61 1010.5
20260507164022 49 314 9.0 11.0 0.00 0.02 0.00 57 1010.5
20260507163522 49 265 6.0 12.0 0.00 0.02 0.00 59 1010.5
20260507163247 49 268 7.0 15.0 0.00 0.02 0.00 60 1010.6
20260507162258 50 265 11.0 17.0 0.00 0.02 0.00 59 1010.7
20260507161801 50 265 5.0 12.0 0.00 0.02 0.00 59 1010.7
20260507161022 50 286 6.0 12.0 0.00 0.02 0.00 58 1010.6
20260507160751 50 271 4.0 13.0 0.00 0.03 0.00 61 1010.8
20260507160022 51 285 7.0 15.0 0.00 0.03 0.00 59 1010.9
20260507155745 51 278 10.0 15.0 0.00 0.03 0.00 59 1010.7
20260507155022 51 306 8.0 14.0 0.00 0.03 0.00 59 1010.7
20260507154522 51 300 6.0 12.0 0.00 0.04 0.00 61 1010.7
20260507154115 51 295 3.0 11.0 0.00 0.04 0.00 60 1010.8
20260507154022 51 295 4.0 10.0 0.00 0.04 0.00 58 1010.8
20260507153255 50 309 6.0 11.0 0.00 0.04 0.00 64 1010.8
20260507152521 49 286 3.0 14.0 0.00 0.04 0.00 65 1010.9
20260507152246 49 289 9.0 14.0 0.00 0.04 0.00 64 1010.9
20260507151800 48 290 4.0 10.0 0.00 0.04 0.00 65 1011.0
20260507151025 48 276 4.0 14.0 0.00 0.05 0.00 61 1011.1
20260507150522 49 310 5.0 16.0 0.00 0.05 0.00 61 1011.1
20260507150024 49 271 11.0 16.0 0.00 0.06 0.00 58 1011.1
20260507145521 49 302 6.0 13.0 0.00 0.06 0.00 61 1011.2
20260507145246 49 295 9.0 13.0 0.00 0.07 0.00 60 1011.2
20260507144022 49 265 9.0 18.0 0.00 0.08 0.00 59 1011.2
20260507143522 49 286 11.0 18.0 0.00 0.10 0.00 61 1011.2
20260507143022 49 282 12.0 17.0 0.00 0.12 0.00 60 1011.1
20260507142523 49 286 12.0 17.0 0.00 0.12 0.00 61 1011.1
20260507142258 49 309 8.0 14.0 0.00 0.13 0.00 65 1011.0
20260507141522 49 283 8.0 13.0 0.00 0.13 0.00 67 1011.2
20260507141022 49 223 5.0 10.0 0.00 0.14 0.00 66 1011.3
20260507140522 50 317 4.0 10.0 0.00 0.14 0.00 66 1011.3
20260507140023 50 269 4.0 10.0 0.00 0.14 0.00 67 1011.2
20260507135522 49 206 5.0 9.0 0.00 0.15 0.00 66 1011.3
20260507135257 49 152 4.0 5.0 0.00 0.16 0.00 70 1011.3
20260507134523 48 279 3.0 7.0 0.00 0.16 0.00 70 1011.4
20260507134022 48 281 4.0 7.0 0.00 0.17 0.00 73 1011.4
20260507133522 47 202 3.0 7.0 0.00 0.18 0.00 74 1011.6
20260507133510 47 250 3.0 7.0 0.00 0.19 0.00 74 1011.6
20260507132023 46 295 2.0 5.0 0.00 0.20 0.00 77 1011.8
20260507131521 46 224 4.0 5.0 0.00 0.21 0.00 76 1011.8
20260507131021 46 298 3.0 4.0 0.00 0.22 0.00 80 1011.9
20260507130521 45 234 2.0 4.0 0.00 0.22 0.00 82 1011.8
20260507130256 44 234 2.0 4.0 0.00 0.23 0.00 82 1011.8
20260507125521 43 188 1.0 3.0 0.00 0.24 0.00 85 1011.7
20260507125022 43 269 2.0 4.0 0.00 0.24 0.00 88 1011.7
20260507124522 42 274 3.0 4.0 0.00 0.25 0.00 89 1011.8
20260507124258 42 278 2.0 5.0 0.00 0.27 0.00 91 1011.8
20260507123521 42 238 2.0 6.0 0.00 0.28 0.00 92 1011.8
20260507123022 41 250 4.0 6.0 0.00 0.29 0.00 93 1011.9
20260507122521 41 296 1.0 3.0 0.00 0.30 0.00 93 1011.8
20260507122022 40 296 2.0 3.0 0.00 0.32 0.00 94 1011.8
20260507121523 40 296 2.0 3.0 0.00 0.33 0.00 94 1011.8
20260507121258 40 296 1.0 2.0 0.00 0.35 0.00 94 1011.8
20260507120520 39 296 0.0 2.0 0.00 0.36 0.00 94 1011.7
20260507120021 39 296 1.0 3.0 0.00 0.37 0.00 94 1011.7
20260507115522 39 296 2.0 4.0 0.00 0.38 0.00 94 1011.7
20260507115021 39 296 3.0 4.0 0.00 0.39 0.00 94 1011.6
20260507114521 39 121 0.0 3.0 0.00 0.39 0.00 95 1011.5
20260507114022 38 121 2.0 3.0 0.00 0.40 0.00 95 1011.4
20260507113522 38 162 2.0 3.0 0.00 0.40 0.00 94 1011.4
20260507113023 37 127 0.0 3.0 0.00 0.41 0.00 94 1011.5
20260507112521 37 240 0.0 4.0 0.00 0.41 0.00 94 1011.6
20260507112021 36 226 2.0 4.0 0.00 0.41 0.00 94 1011.8
20260507111522 36 259 3.0 4.0 0.00 0.41 0.00 94 1011.8
20260507111021 36 254 0.0 4.0 0.00 0.42 0.00 94 1011.7
20260507110811 36 254 2.0 5.0 0.00 0.42 0.00 93 1011.7
20260507110021 36 264 3.0 5.0 0.00 0.42 0.00 93 1011.6
20260507105521 36 307 2.0 3.0 0.00 0.42 0.00 93 1011.6
20260507105021 35 307 2.0 3.0 0.00 0.42 0.00 93 1011.6
20260507104522 36 307 2.0 4.0 0.00 0.42 0.00 93 1011.5
20260507104021 36 307 2.0 4.0 0.00 0.43 0.00 93 1011.5
20260507103522 36 307 2.0 4.0 0.00 0.44 0.00 92 1011.4
20260507103021 36 307 2.0 4.0 0.00 0.44 0.00 92 1011.4
20260507102521 36 307 3.0 4.0 0.00 0.44 0.00 92 1011.4
20260507102256 36 307 2.0 4.0 0.00 0.45 0.00 92 1011.3
20260507101521 36 307 2.0 4.0 0.00 0.45 0.00 92 1011.2
20260507101258 36 307 2.0 3.0 0.00 0.45 0.00 92 1011.2
20260507100521 36 307 1.0 3.0 0.00 0.46 0.00 92 1011.3
20260507100021 36 307 0.0 3.0 0.00 0.46 0.00 92 1011.2
20260507095524 37 307 0.0 3.0 0.00 0.46 0.00 92 1011.2
20260507095021 37 307 1.0 3.0 0.00 0.46 0.00 92 1011.2
20260507094521 37 307 0.0 0.0 0.00 0.46 0.00 92 1011.3
20260507094021 37 307 0.0 0.0 0.00 0.46 0.00 92 1011.2
20260507093522 37 307 0.0 0.0 0.00 0.46 0.00 92 1011.2
20260507093256 37 307 0.0 2.0 0.00 0.47 0.00 92 1011.2
20260507092522 37 307 1.0 2.0 0.00 0.47 0.00 92 1011.2
20260507092258 37 307 0.0 2.0 0.00 0.47 0.00 91 1011.2
20260507091757 37 307 0.0 1.0 0.00 0.48 0.00 91 1011.3
20260507091255 37 307 0.0 0.0 0.00 0.48 0.00 91 1011.3
20260507090522 37 307 0.0 0.0 0.00 0.49 0.00 91 1011.2
20260507090021 38 307 0.0 0.0 0.00 0.49 0.00 91 1011.5
20260507085521 38 307 0.0 2.0 0.00 0.50 0.00 91 1011.5
20260507085022 38 307 1.0 2.0 0.00 0.50 0.00 91 1011.5
20260507084536 38 307 1.0 2.0 0.00 0.50 0.00 91 1011.5
20260507083800 38 307 1.0 2.0 0.00 0.50 0.00 90 1011.5
20260507083021 38 307 0.0 0.0 0.00 0.51 0.00 90 1011.5
20260507082521 39 307 0.0 0.0 0.00 0.51 0.00 90 1011.6
20260507082022 39 307 0.0 0.0 0.00 0.51 0.00 90 1011.6
20260507081521 39 307 0.0 2.0 0.00 0.51 0.00 90 1011.6
20260507081022 39 307 0.0 2.0 0.00 0.51 0.00 90 1011.5
20260507080521 39 307 0.0 0.0 0.00 0.52 0.00 90 1011.5
20260507080022 39 307 0.0 0.0 0.00 0.52 0.00 90 1011.5
20260507075522 39 307 0.0 0.0 0.00 0.52 0.00 90 1011.5
20260507075022 39 307 0.0 0.0 0.00 0.52 0.00 90 1011.5
20260507074521 39 307 0.0 0.0 0.00 0.52 0.00 90 1011.6
20260507074023 40 307 0.0 2.0 0.00 0.52 0.00 90 1011.5
20260507073521 40 307 0.0 2.0 0.00 0.52 0.00 89 1011.5
20260507073020 40 307 0.0 3.0 0.00 0.52 0.00 89 1011.5
20260507072524 40 307 0.0 3.0 0.00 0.52 0.00 89 1011.5
20260507072258 40 307 0.0 2.0 0.00 0.53 0.00 89 1011.6
20260507071521 40 307 0.0 0.0 0.00 0.53 0.00 89 1011.6
20260507071021 40 307 0.0 0.0 0.00 0.53 0.00 89 1011.5
20260507070522 40 307 0.0 0.0 0.00 0.53 0.00 89 1011.4
20260507070021 40 307 0.0 0.0 0.00 0.53 0.00 89 1011.4
20260507065521 40 307 0.0 0.0 0.00 0.53 0.00 89 1011.4
20260507065021 40 307 0.0 0.0 0.00 0.53 0.00 89 1011.5
20260507064521 40 307 0.0 2.0 0.00 0.53 0.00 89 1011.5
20260507064021 40 307 0.0 2.0 0.00 0.53 0.00 89 1011.5
20260507063521 40 307 0.0 3.0 0.00 0.53 0.00 89 1011.6
20260507063021 40 307 0.0 5.0 0.00 0.53 0.00 89 1011.7
20260507062523 40 307 2.0 5.0 0.00 0.53 0.00 89 1011.7
20260507062021 40 313 1.0 3.0 0.00 0.53 0.00 89 1011.7
20260507061522 40 313 0.0 5.0 0.00 0.54 0.00 89 1011.8
20260507061020 40 313 1.0 5.0 0.00 0.54 0.00 89 1012.0
20260507060521 40 302 1.0 4.0 0.00 0.54 0.00 89 1011.8
20260507060257 40 292 0.0 2.0 0.00 0.54 0.00 89 1011.5
20260507055521 40 274 0.0 1.0 0.00 0.54 0.00 89 1011.4
20260507055022 40 274 0.0 1.0 0.00 0.54 0.00 88 1011.6
20260507054521 40 274 0.0 1.0 0.00 0.54 0.00 88 1011.7
20260507054258 40 274 0.0 1.0 0.00 0.54 0.00 88 1011.7
20260507053522 40 274 0.0 2.0 0.00 0.54 0.00 88 1011.7
20260507053021 40 274 1.0 2.0 0.00 0.54 0.00 88 1011.9
20260507052756 41 274 0.0 1.0 0.00 0.54 0.00 88 1011.8
20260507052021 41 274 0.0 1.0 0.00 0.54 0.00 88 1011.8
20260507051521 41 274 0.0 1.0 0.00 0.54 0.00 88 1011.7
20260507051021 41 274 0.0 1.0 0.00 0.54 0.00 88 1011.7
20260507050801 41 274 0.0 4.0 0.00 0.54 0.00 87 1011.8
20260507050043 41 302 1.0 4.0 0.00 0.54 0.00 87 1011.8
20260507050035 41 274 0.0 4.0 0.00 0.54 0.00 87 1011.8
20260507045021 41 302 2.0 5.0 0.00 0.54 0.00 87 1011.9
20260507044757 41 302 3.0 7.0 0.00 0.54 0.00 87 1011.8
20260507044228 41 281 4.0 7.0 0.00 0.54 0.00 86 1011.8
20260507043020 41 296 3.0 6.0 0.00 0.54 0.00 87 1011.8
20260507043012 42 300 4.0 7.0 0.00 0.54 0.00 87 1011.7
20260507041521 42 298 4.0 7.0 0.00 0.54 0.00 87 1011.7
20260507041021 42 269 6.0 7.0 0.00 0.54 0.00 87 1011.7
20260507040754 42 303 3.0 6.0 0.00 0.54 0.00 87 1011.6
20260507040022 42 293 3.0 5.0 0.00 0.54 0.00 87 1011.7
20260507035757 42 278 2.0 6.0 0.00 0.54 0.54 87 1011.6
20260507035254 42 288 4.0 6.0 0.00 0.54 0.54 86 1011.7
20260507034521 42 278 3.0 6.0 0.00 0.54 0.54 86 1011.5
20260507034021 42 282 4.0 6.0 0.00 0.54 0.54 85 1011.4
20260507033543 42 275 3.0 6.0 0.00 0.54 0.54 84 1011.2
20260507033535 42 275 2.0 6.0 0.00 0.54 0.54 85 1011.3
20260507032520 42 271 3.0 11.0 0.00 0.54 0.54 84 1011.0
20260507032021 42 282 4.0 11.0 0.00 0.54 0.54 83 1010.9
20260507031759 43 252 5.0 10.0 0.00 0.54 0.54 83 1010.9
20260507030520 43 265 4.0 12.0 0.00 0.54 0.54 84 1010.9
20260507030024 43 310 4.0 13.0 0.00 0.54 0.54 84 1010.9
20260507030020 43 276 6.0 13.0 0.00 0.54 0.54 85 1011.2
20260507025022 43 298 4.0 13.0 0.00 0.54 0.54 86 1011.1
20260507024753 43 288 8.0 16.0 0.00 0.54 0.54 87 1011.2
20260507024302 44 288 9.0 16.0 0.00 0.54 0.54 88 1011.1
20260507023521 44 292 6.0 15.0 0.00 0.54 0.54 89 1011.2
20260507023021 44 312 6.0 16.0 0.00 0.54 0.54 90 1011.2
20260507022523 44 272 9.0 16.0 0.00 0.54 0.54 91 1011.2
20260507022021 44 289 6.0 12.0 0.00 0.54 0.54 93 1011.3
20260507021556 45 300 5.0 13.0 0.00 0.54 0.54 94 1011.3
20260507021544 44 275 7.0 12.0 0.00 0.54 0.54 93 1011.3
20260507020510 45 295 9.0 15.0 0.00 0.54 0.54 94 1011.2
20260507015520 45 285 5.0 14.0 0.00 0.54 0.54 94 1011.1
20260507015020 45 285 4.0 5.0 0.00 0.54 0.54 94 1011.5
20260507014521 45 269 2.0 4.0 0.00 0.54 0.54 94 1011.3
20260507014020 45 269 2.0 4.0 0.00 0.54 0.54 93 1011.2
20260507013521 45 269 2.0 4.0 0.00 0.54 0.54 93 1011.3
20260507013021 45 269 2.0 4.0 0.00 0.54 0.54 93 1011.2
20260507012521 45 269 2.0 5.0 0.00 0.54 0.54 93 1011.1
20260507012021 45 250 3.0 5.0 0.00 0.54 0.54 93 1011.4
20260507011521 45 266 3.0 4.0 0.00 0.54 0.54 93 1011.4
20260507011020 45 266 1.0 4.0 0.00 0.54 0.54 93 1011.1
20260507010521 45 266 1.0 4.0 0.00 0.54 0.54 93 1011.2
20260507010021 45 274 1.0 3.0 0.00 0.54 0.54 92 1011.2
20260507005522 45 258 0.0 2.0 0.00 0.54 0.54 92 1011.1
20260507005040 45 258 0.0 0.0 0.00 0.54 0.54 92 1011.0
20260507005032 45 258 0.0 0.0 0.00 0.54 0.54 92 1011.0
20260507004020 45 258 0.0 0.0 0.00 0.54 0.54 92 1011.0
20260507003520 46 258 0.0 0.0 0.00 0.54 0.54 92 1011.0
20260507003021 46 282 0.0 0.0 0.00 0.54 0.54 92 1010.9
20260507002521 46 282 0.0 0.0 0.00 0.54 0.54 92 1010.8
20260507002020 46 282 0.0 0.0 0.00 0.54 0.54 92 1010.5
20260507001521 46 282 0.0 1.0 0.00 0.54 0.54 92 1010.6
20260507001022 46 282 0.0 1.0 0.00 0.54 0.54 92 1010.5
20260507000544 46 282 0.0 1.0 0.00 0.54 0.54 92 1010.5
20260507000536 46 282 0.0 1.0 0.00 0.54 0.54 92 1010.6
20260506235521 46 282 0.0 1.0 0.00 0.54 0.54 92 1010.5
20260506235021 46 282 0.0 1.0 0.00 0.54 0.54 92 1010.5
20260506234541 46 282 0.0 0.0 0.00 0.54 0.54 92 1010.1
20260506234535 46 282 0.0 0.0 0.00 0.54 0.54 92 1010.2
20260506233755 46 282 0.0 0.0 0.00 0.54 0.54 92 1010.1
20260506233254 46 282 0.0 0.0 0.00 0.54 0.54 92 1010.2
20260506232520 46 282 0.0 0.0 0.00 0.54 0.54 92 1010.1
20260506232020 46 282 0.0 3.0 0.00 0.54 0.54 92 1010.1
20260506231758 46 282 0.0 3.0 0.00 0.54 0.54 92 1010.1
20260506231021 46 266 0.0 0.0 0.00 0.54 0.54 92 1010.0
20260506230521 46 266 0.0 4.0 0.00 0.54 0.54 92 1010.2
20260506230020 46 266 0.0 4.0 0.00 0.54 0.54 92 1010.0
20260506225521 46 305 1.0 4.0 0.00 0.54 0.54 92 1010.0
20260506225020 47 306 2.0 4.0 0.00 0.54 0.54 92 1009.9
20260506224520 47 6 1.0 4.0 0.00 0.54 0.54 92 1009.9
20260506224020 46 290 1.0 4.0 0.00 0.54 0.54 92 1010.0
20260506223520 46 296 1.0 5.0 0.00 0.54 0.54 92 1010.0
20260506223020 46 300 4.0 5.0 0.00 0.54 0.54 92 1009.9
20260506222755 46 282 1.0 3.0 0.00 0.54 0.54 92 1009.9
20260506222021 46 282 0.0 3.0 0.00 0.54 0.54 92 1009.8
20260506221520 46 305 0.0 4.0 0.00 0.54 0.54 92 1009.7
20260506221020 46 314 2.0 4.0 0.00 0.54 0.54 92 1009.6
20260506220520 46 302 1.0 3.0 0.00 0.54 0.54 92 1009.8
20260506220020 47 319 1.0 3.0 0.00 0.54 0.54 92 1009.6
20260506215520 47 316 0.0 4.0 0.00 0.54 0.54 92 1009.6
20260506215020 47 341 1.0 5.0 0.00 0.54 0.54 92 1009.7
20260506214520 47 305 1.0 5.0 0.00 0.55 0.54 92 1009.7
20260506214020 47 175 0.0 4.0 0.00 0.55 0.54 92 1009.5
20260506213522 47 142 1.0 5.0 0.00 0.56 0.54 92 1009.3
20260506213022 47 286 1.0 5.0 0.00 0.57 0.54 92 1009.4
20260506212520 47 305 0.0 5.0 0.00 0.57 0.54 93 1009.4
20260506212020 47 296 1.0 4.0 0.00 0.57 0.54 93 1009.4
20260506211754 47 307 0.0 5.0 0.00 0.57 0.54 93 1009.4
20260506211020 47 317 1.0 7.0 0.00 0.57 0.54 93 1009.4
20260506210520 47 266 1.0 7.0 0.00 0.57 0.54 93 1009.3
20260506210020 47 271 1.0 6.0 0.00 0.57 0.54 93 1009.3
20260506205520 47 320 2.0 7.0 0.00 0.57 0.54 94 1009.3
20260506205021 47 295 3.0 7.0 0.00 0.57 0.54 94 1009.2
20260506204757 47 276 1.0 6.0 0.00 0.57 0.54 94 1009.1
20260506204020 47 314 2.0 6.0 0.00 0.57 0.54 94 1009.1
20260506203757 47 223 2.0 9.0 0.00 0.57 0.54 94 1009.1
20260506203516 47 310 3.0 9.0 0.00 0.57 0.54 95 1009.1
20260506202749 47 274 2.0 6.0 0.00 0.57 0.54 94 1009.0
20260506202020 47 282 3.0 6.0 0.00 0.57 0.54 94 1008.9
20260506201519 46 305 1.0 6.0 0.00 0.57 0.54 94 1008.8
20260506201257 46 313 2.0 6.0 0.00 0.57 0.54 94 1008.9
20260506200521 46 317 1.0 5.0 0.00 0.57 0.54 94 1008.8
20260506200246 46 298 0.0 5.0 0.00 0.57 0.54 94 1008.8
20260506195756 46 305 2.0 5.0 0.00 0.57 0.54 94 1008.8
20260506195020 46 326 2.0 6.0 0.00 0.57 0.54 94 1008.8
20260506194520 46 323 4.0 6.0 0.00 0.57 0.54 94 1008.7
20260506194021 46 289 2.0 7.0 0.00 0.57 0.54 94 1008.8
20260506193520 46 341 4.0 7.0 0.00 0.57 0.54 94 1008.7
20260506193020 46 307 2.0 6.0 0.00 0.57 0.54 94 1008.6
20260506192755 46 288 2.0 6.0 0.00 0.57 0.54 94 1008.4
20260506192254 46 17 3.0 6.0 0.00 0.57 0.54 95 1008.2